This is the latest recevied weather packets stored in our database for station/object VA3ZFM-10. If no packets are shown the sender has not sent any weather packets the latest 10 day(s).
| Time | Temp. | Humidity | Pressure | Rain* | Wind** | Luminosity | Snow |
|---|---|---|---|---|---|---|---|
| 1777795099 | 1.11° C | 69% | 1011.3 hPa | 0 mm | - | - | - |
| 1777794795 | 1.11° C | 69% | 1011.1 hPa | 0 mm | - | - | - |
| 1777794492 | 1.11° C | 69% | 1011.2 hPa | 0 mm | - | - | - |
| 1777794187 | 1.11° C | 68% | 1011.4 hPa | 0 mm | - | - | - |
| 1777793883 | 1.11° C | 70% | 1011.3 hPa | 0 mm | - | - | - |
| 1777793581 | 1.11° C | 68% | 1011.2 hPa | 0 mm | - | - | - |
| 1777793279 | 1.11° C | 68% | 1011.4 hPa | 0 mm | - | - | - |
| 1777792976 | 1.11° C | 68% | 1011.1 hPa | 0 mm | - | - | - |
| 1777792672 | 1.11° C | 67% | 1011.1 hPa | 0 mm | - | - | - |
| 1777792369 | 1.67° C | 70% | 1011.6 hPa | 0 mm | - | - | - |
| 1777792065 | 1.67° C | 69% | 1011.2 hPa | 0 mm | - | - | - |
| 1777791764 | 1.67° C | 69% | 1011.2 hPa | 0 mm | - | - | - |
| 1777791462 | 1.67° C | 68% | 1011.4 hPa | 0 mm | - | - | - |
| 1777791158 | 1.67° C | 69% | 1011.4 hPa | 0 mm | - | - | - |
| 1777790856 | 1.67° C | 68% | 1011.4 hPa | 0 mm | - | - | - |
| 1777790553 | 1.67° C | 70% | 1011.5 hPa | 0 mm | - | - | - |
| 1777790250 | 1.67° C | 68% | 1011.3 hPa | 0 mm | - | - | - |
| 1777789949 | 1.67° C | 69% | 1011.5 hPa | 0 mm | - | - | - |
| 1777789646 | 1.67° C | 68% | 1011.7 hPa | 0 mm | - | - | - |
| 1777789346 | 1.67° C | 70% | 1011.6 hPa | 0 mm | - | - | - |
| 1777789042 | 1.67° C | 70% | 1011.6 hPa | 0 mm | - | - | - |
| 1777788739 | 1.67° C | 71% | 1011.6 hPa | 0 mm | - | - | - |
| 1777788434 | 1.67° C | 71% | 1011.5 hPa | 0 mm | - | - | - |
| 1777788129 | 1.67° C | 69% | 1011.7 hPa | 0 mm | - | - | - |
| 1777787824 | 1.67° C | 69% | 1011.6 hPa | 0 mm | - | - | - |
* Rain latest hour (hover to see other rain measurements)
** Current wind speed in m/s (hover to see current wind gust speed)